This is the latest recevied weather packets stored in our database for station/object IW2GOB-3. If no packets are shown the sender has not sent any weather packets the latest 1 day(s).
| Time | Temp. | Humidity | Pressure | Rain* | Wind** | Luminosity | Snow |
|---|---|---|---|---|---|---|---|
| 1778009723 | 15.56° C | 89% | 1011.8 hPa | 0.25 mm | 0.45 m/s, 112° | - | - |
| 1778009123 | 15.56° C | 89% | 1011.8 hPa | 0 mm | 0 m/s | - | - |
| 1778008523 | 15.56° C | 89% | 1011.7 hPa | 0 mm | 0.89 m/s, 92° | - | - |
| 1778007923 | 15.56° C | 89% | 1011.7 hPa | 0 mm | 0.89 m/s, 129° | - | - |
| 1778007323 | 15.56° C | 89% | 1011.5 hPa | 0 mm | 0 m/s | - | - |
| 1778006723 | 15.56° C | 89% | 1011.6 hPa | 0 mm | 0 m/s | - | - |
| 1778006123 | 15.56° C | 89% | 1011.6 hPa | 0 mm | 0.45 m/s, 54° | - | - |
| 1778005523 | 15.56° C | 89% | 1011.5 hPa | 0 mm | 0.45 m/s, 76° | - | - |
| 1778004923 | 15.56° C | 89% | 1011.4 hPa | 0 mm | 0.45 m/s, 46° | - | - |
| 1778004323 | 15.56° C | 89% | 1011.4 hPa | 0 mm | 0.89 m/s, 107° | - | - |
| 1778003723 | 15.56° C | 89% | 1011.3 hPa | 0 mm | 0.45 m/s, 89° | - | - |
| 1778003123 | 15.56° C | 89% | 1011.3 hPa | 0 mm | 1.34 m/s, 61° | - | - |
| 1778002523 | 15.56° C | 89% | 1011.4 hPa | 0 mm | 0.45 m/s, 68° | - | - |
| 1778001923 | 15.56° C | 89% | 1011.4 hPa | 0 mm | 0.45 m/s, 84° | - | - |
| 1778001323 | 15.56° C | 89% | 1011.4 hPa | 0 mm | 0.45 m/s, 93° | - | - |
| 1778000723 | 15.56° C | 89% | 1011.3 hPa | 0 mm | 0.89 m/s, 95° | - | - |
| 1778000123 | 15.56° C | 89% | 1011.2 hPa | 0 mm | 0.45 m/s, 86° | - | - |
| 1777999523 | 15° C | 89% | 1011.3 hPa | 0 mm | 0.89 m/s, 115° | - | - |
| 1777998923 | 15° C | 89% | 1011.4 hPa | 0 mm | 0.45 m/s, 87° | - | - |
| 1777998325 | 15° C | 89% | 1011.6 hPa | 0 mm | 0.45 m/s, 103° | - | - |
| 1777997723 | 15° C | 90% | 1011.6 hPa | 0 mm | 0.45 m/s, 98° | - | - |
| 1777997123 | 15° C | 92% | 1011.6 hPa | 0 mm | 0.45 m/s, 127° | - | - |
| 1777996523 | 15° C | 90% | 1011.6 hPa | 0 mm | 0.89 m/s, 90° | - | - |
| 1777995923 | 15° C | 90% | 1011.7 hPa | 0 mm | 0.45 m/s, 88° | - | - |
| 1777995323 | 15° C | 90% | 1011.7 hPa | 0 mm | 2.24 m/s, 114° | - | - |
* Rain latest hour (hover to see other rain measurements)
** Current wind speed in m/s (hover to see current wind gust speed)